Terminal Aerodrome Forecast
Issued by NWS State College, PA

Home | Current Version | Previous Version | Text Only | Print | Product List | Glossary On
Versions: 1 2 3 4 5 6 7 8 9 10 11 12 13 14 15 16 17 18 19 20 21 22 23 24 25 26 27 28 29 30 31 32 33 34 35 36 37 38 39 40 41 42 43 44 45 46 47 48 49 50
000
FTUS41 KCTP 310322 AAA
TAFIPT
TAF AMD
KIPT 310322Z 3103/3124 28008KT P6SM BKN005 OVC050
     FM310600 00000KT P6SM BKN050
     FM310900 VRB03KT 6SM BR SCT025
     FM311200 24007KT P6SM SCT050=

USA.gov is the U.S. government's official web portal to all federal, state and local government web resources and services.